Orbital Elements at Epoch 2459200.5 (2020-Dec-17.0) TDB
Reference: JPL 27 (heliocentric ecliptic J2000)
Element | Value | Uncertainty (1-sigma) | Units |
e | .152675977334946 | 2.7704e-08 | |
a | 2.270707068441503 | 5.4727e-09 | au |
q | 1.924024647525827 | 6.4008e-08 | au |
i | 1.489427075953853 | 3.6831e-06 | deg |
node | 192.6428498979751 | 0.0001182 | deg |
peri | 247.0692322288899 | 0.00011895 | deg |
M | 332.0823874533119 | 1.2099e-05 | deg |
tp | 2459297.420549897093 (2021-Mar-23.92054990) | 4.2024e-05 | TDB |
period | 1249.7987750422 3.42 | 4.5183e-06 1.237e-08 | d yr |
n | .2880463696948691 | 1.0414e-09 | deg/d |
Q | 2.61738948935718 | 6.3083e-09 | au |
|
| | Orbit Determination Parameters
Additional Information
|